Time,TemperatureF,DewpointF,PressureIn,WindDirection,WindDirectionDegrees,WindSpeedMPH,WindSpeedGustMPH,Humidity,HourlyPrecipIn,Conditions,Clouds,dailyrainin,SoftwareType,DateUTC
2013-08-07 00:01:00,73.2,69.1,29.83,South,180,0.0,0.0,87,0.00,,,0.00,WUHU21623XXSP,2013-08-07 05:01:00,
2013-08-07 00:06:00,73.2,69.1,29.83,SSW,202,0.0,0.0,87,0.00,,,0.00,WUHU21623XXSP,2013-08-07 05:06:00,
2013-08-07 00:11:00,73.0,69.3,29.82,SSE,157,0.0,0.7,88,0.00,,,0.00,WUHU21623XXSP,2013-08-07 05:11:00,
2013-08-07 00:16:00,73.2,69.5,29.82,SSE,157,0.0,0.7,88,0.00,,,0.00,WUHU21623XXSP,2013-08-07 05:16:00,
2013-08-07 00:21:00,73.0,69.3,29.82,SSE,157,0.0,0.0,88,0.00,,,0.00,WUHU21623XXSP,2013-08-07 05:21:00,
2013-08-07 00:26:00,73.0,69.6,29.82,SSE,157,0.7,0.7,89,0.00,,,0.00,WUHU21623XXSP,2013-08-07 05:26:00,
2013-08-07 00:31:00,73.0,69.6,29.82,SSE,157,1.1,1.1,89,0.00,,,0.00,WUHU21623XXSP,2013-08-07 05:31:00,
2013-08-07 00:36:00,73.0,69.6,29.82,South,180,0.0,1.1,89,0.00,,,0.00,WUHU21623XXSP,2013-08-07 05:36:00,
2013-08-07 00:41:00,73.2,69.8,29.82,SW,225,0.0,0.0,89,0.00,,,0.00,WUHU21623XXSP,2013-08-07 05:41:00,
2013-08-07 00:46:00,73.0,69.6,29.83,South,180,0.0,0.0,89,0.00,,,0.00,WUHU21623XXSP,2013-08-07 05:46:00,
2013-08-07 00:51:00,73.0,70.0,29.82,South,180,0.0,0.0,90,0.00,,,0.00,WUHU21623XXSP,2013-08-07 05:51:00,
2013-08-07 00:56:00,73.0,69.6,29.81,SW,225,0.0,0.0,89,0.00,,,0.00,WUHU21623XXSP,2013-08-07 05:56:00,
2013-08-07 01:01:00,73.2,70.2,29.81,SE,135,0.0,0.0,90,0.00,,,0.00,WUHU21623XXSP,2013-08-07 06:01:00,
2013-08-07 01:06:00,73.2,70.2,29.81,SE,135,0.0,0.0,90,0.00,,,0.00,WUHU21623XXSP,2013-08-07 06:06:00,
2013-08-07 01:11:00,73.2,70.2,29.81,South,180,0.0,0.0,90,0.00,,,0.00,WUHU21623XXSP,2013-08-07 06:11:00,
2013-08-07 01:16:00,73.4,70.3,29.81,SE,135,0.0,0.0,90,0.00,,,0.00,WUHU21623XXSP,2013-08-07 06:16:00,
2013-08-07 01:21:00,73.2,70.2,29.81,SE,135,0.0,0.0,90,0.00,,,0.00,WUHU21623XXSP,2013-08-07 06:21:00,
2013-08-07 01:26:00,73.2,70.2,29.81,SE,135,0.0,0.0,90,0.00,,,0.00,WUHU21623XXSP,2013-08-07 06:26:00,
2013-08-07 01:31:00,73.2,70.2,29.81,SE,135,0.0,0.0,90,0.00,,,0.00,WUHU21623XXSP,2013-08-07 06:31:00,
2013-08-07 01:36:00,73.2,70.2,29.81,ESE,112,0.0,0.0,90,0.00,,,0.00,WUHU21623XXSP,2013-08-07 06:36:00,
2013-08-07 01:41:00,73.2,70.2,29.81,ESE,112,0.0,0.0,90,0.00,,,0.00,WUHU21623XXSP,2013-08-07 06:41:00,
2013-08-07 01:46:00,73.2,70.5,29.82,SE,135,0.0,0.0,91,0.00,,,0.00,WUHU21623XXSP,2013-08-07 06:46:00,
2013-08-07 01:51:00,73.2,70.2,29.82,SE,135,0.0,0.0,90,0.00,,,0.00,WUHU21623XXSP,2013-08-07 06:51:00,
2013-08-07 01:56:00,73.2,70.2,29.82,South,180,0.0,0.0,90,0.00,,,0.00,WUHU21623XXSP,2013-08-07 06:56:00,
2013-08-07 02:01:00,73.2,70.5,29.82,South,180,0.0,0.0,91,0.00,,,0.00,WUHU21623XXSP,2013-08-07 07:01:00,
2013-08-07 02:06:00,73.2,70.5,29.82,SSE,157,0.0,1.3,91,0.00,,,0.00,WUHU21623XXSP,2013-08-07 07:06:00,
2013-08-07 02:11:00,73.2,70.5,29.81,SSE,157,0.0,1.3,91,0.00,,,0.00,WUHU21623XXSP,2013-08-07 07:11:00,
2013-08-07 02:16:00,73.0,70.3,29.81,SSW,202,0.0,0.0,91,0.00,,,0.00,WUHU21623XXSP,2013-08-07 07:16:00,
2013-08-07 02:21:00,73.0,70.3,29.81,SSW,202,0.0,0.0,91,0.00,,,0.00,WUHU21623XXSP,2013-08-07 07:21:00,
2013-08-07 02:26:00,73.0,70.3,29.81,SSW,202,0.0,0.0,91,0.00,,,0.00,WUHU21623XXSP,2013-08-07 07:26:00,
2013-08-07 02:31:00,73.0,70.3,29.81,SSW,202,0.0,0.0,91,0.00,,,0.00,WUHU21623XXSP,2013-08-07 07:31:00,
2013-08-07 02:36:00,73.0,70.3,29.81,SSW,202,0.0,0.0,91,0.00,,,0.00,WUHU21623XXSP,2013-08-07 07:36:00,
2013-08-07 02:41:00,73.0,70.3,29.81,SSW,202,0.0,0.0,91,0.00,,,0.00,WUHU21623XXSP,2013-08-07 07:41:00,
2013-08-07 02:46:00,73.0,70.3,29.80,SSW,202,0.0,0.0,91,0.00,,,0.00,WUHU21623XXSP,2013-08-07 07:46:00,
2013-08-07 02:51:00,73.0,70.3,29.80,SSW,202,0.0,0.0,91,0.00,,,0.00,WUHU21623XXSP,2013-08-07 07:51:00,
2013-08-07 02:56:00,72.9,70.1,29.80,SSW,202,0.0,0.0,91,0.00,,,0.00,WUHU21623XXSP,2013-08-07 07:56:00,
2013-08-07 03:01:00,72.9,70.1,29.80,SSW,202,0.0,0.0,91,0.00,,,0.00,WUHU21623XXSP,2013-08-07 08:01:00,
2013-08-07 03:06:00,72.9,70.1,29.80,SSW,202,0.0,0.0,91,0.00,,,0.00,WUHU21623XXSP,2013-08-07 08:06:00,
2013-08-07 03:11:00,72.7,69.9,29.80,SSW,202,0.0,0.0,91,0.00,,,0.00,WUHU21623XXSP,2013-08-07 08:11:00,
2013-08-07 03:16:00,72.5,69.7,29.81,SSW,202,0.0,0.0,91,0.00,,,0.00,WUHU21623XXSP,2013-08-07 08:16:00,
2013-08-07 03:21:00,72.5,69.7,29.81,SSW,202,0.0,0.0,91,0.00,,,0.00,WUHU21623XXSP,2013-08-07 08:21:00,
2013-08-07 03:26:00,72.5,69.7,29.80,SSW,202,0.0,0.0,91,0.00,,,0.00,WUHU21623XXSP,2013-08-07 08:26:00,
2013-08-07 03:31:00,72.3,69.6,29.80,SSW,202,0.0,0.0,91,0.00,,,0.00,WUHU21623XXSP,2013-08-07 08:31:00,
2013-08-07 03:36:00,72.3,69.9,29.80,SSW,202,0.0,0.0,92,0.00,,,0.00,WUHU21623XXSP,2013-08-07 08:36:00,
2013-08-07 03:41:00,72.1,69.7,29.80,SSW,202,0.0,0.0,92,0.00,,,0.00,WUHU21623XXSP,2013-08-07 08:41:00,
2013-08-07 03:46:00,72.1,69.7,29.80,South,180,0.0,0.0,92,0.00,,,0.00,WUHU21623XXSP,2013-08-07 08:46:00,
2013-08-07 03:51:00,72.0,69.5,29.81,South,180,0.0,0.0,92,0.00,,,0.00,WUHU21623XXSP,2013-08-07 08:51:00,
2013-08-07 03:56:00,72.0,69.5,29.80,South,180,0.0,0.0,92,0.00,,,0.00,WUHU21623XXSP,2013-08-07 08:56:00,
2013-08-07 04:01:00,71.8,69.3,29.80,South,180,0.0,0.0,92,0.00,,,0.00,WUHU21623XXSP,2013-08-07 09:01:00,
2013-08-07 04:06:00,71.8,69.3,29.80,South,180,0.0,0.0,92,0.00,,,0.00,WUHU21623XXSP,2013-08-07 09:06:00,
2013-08-07 04:11:00,71.8,69.3,29.80,South,180,0.0,0.0,92,0.00,,,0.00,WUHU21623XXSP,2013-08-07 09:11:00,
2013-08-07 04:16:00,71.8,69.3,29.80,South,180,0.0,0.0,92,0.00,,,0.00,WUHU21623XXSP,2013-08-07 09:16:00,
2013-08-07 04:21:00,71.8,69.3,29.80,South,180,0.0,0.0,92,0.00,,,0.00,WUHU21623XXSP,2013-08-07 09:21:00,
2013-08-07 04:26:00,71.6,69.2,29.79,South,180,0.0,0.0,92,0.00,,,0.00,WUHU21623XXSP,2013-08-07 09:26:00,
2013-08-07 04:31:00,71.4,69.0,29.79,South,180,0.0,0.0,92,0.00,,,0.00,WUHU21623XXSP,2013-08-07 09:31:00,
2013-08-07 04:36:00,71.2,68.8,29.79,South,180,0.0,0.0,92,0.00,,,0.00,WUHU21623XXSP,2013-08-07 09:36:00,
2013-08-07 04:41:00,71.2,68.8,29.79,South,180,0.0,0.0,92,0.00,,,0.00,WUHU21623XXSP,2013-08-07 09:41:00,
2013-08-07 04:46:00,71.2,68.8,29.79,South,180,0.0,0.0,92,0.00,,,0.00,WUHU21623XXSP,2013-08-07 09:46:00,
2013-08-07 04:51:00,71.1,68.6,29.79,South,180,0.0,0.0,92,0.00,,,0.00,WUHU21623XXSP,2013-08-07 09:51:00,
2013-08-07 04:56:00,71.1,68.6,29.79,South,180,0.0,0.0,92,0.00,,,0.00,WUHU21623XXSP,2013-08-07 09:56:00,
2013-08-07 05:01:00,71.1,68.6,29.79,South,180,0.0,0.0,92,0.00,,,0.00,WUHU21623XXSP,2013-08-07 10:01:00,
2013-08-07 05:06:00,71.1,68.6,29.80,South,180,0.0,0.0,92,0.00,,,0.00,WUHU21623XXSP,2013-08-07 10:06:00,
2013-08-07 05:11:00,71.1,68.6,29.80,South,180,0.0,0.0,92,0.00,,,0.00,WUHU21623XXSP,2013-08-07 10:11:00,
2013-08-07 05:16:00,71.1,68.6,29.80,South,180,0.0,0.0,92,0.00,,,0.00,WUHU21623XXSP,2013-08-07 10:16:00,
2013-08-07 05:21:00,70.9,68.4,29.80,South,180,0.0,0.0,92,0.00,,,0.00,WUHU21623XXSP,2013-08-07 10:21:00,
2013-08-07 05:26:00,70.9,68.4,29.80,South,180,0.0,0.0,92,0.00,,,0.00,WUHU21623XXSP,2013-08-07 10:26:00,
2013-08-07 05:31:00,70.9,68.4,29.80,South,180,0.0,0.0,92,0.00,,,0.00,WUHU21623XXSP,2013-08-07 10:31:00,
2013-08-07 05:36:00,70.7,68.3,29.80,SSE,157,0.0,0.0,92,0.00,,,0.00,WUHU21623XXSP,2013-08-07 10:36:00,
2013-08-07 05:41:00,70.5,68.4,29.80,SSE,157,0.0,0.0,93,0.00,,,0.00,WUHU21623XXSP,2013-08-07 10:41:00,
2013-08-07 05:46:00,70.5,68.4,29.79,ESE,112,0.0,0.0,93,0.00,,,0.00,WUHU21623XXSP,2013-08-07 10:46:00,
2013-08-07 05:51:00,70.5,68.4,29.79,ESE,112,0.0,0.0,93,0.00,,,0.00,WUHU21623XXSP,2013-08-07 10:51:00,
2013-08-07 05:56:00,70.3,68.2,29.80,ESE,112,0.0,0.0,93,0.00,,,0.00,WUHU21623XXSP,2013-08-07 10:56:00,
2013-08-07 06:01:00,70.3,68.2,29.80,ENE,67,0.0,0.0,93,0.00,,,0.00,WUHU21623XXSP,2013-08-07 11:01:00,
2013-08-07 06:06:00,70.3,68.2,29.81,ENE,67,0.0,0.0,93,0.00,,,0.00,WUHU21623XXSP,2013-08-07 11:06:00,
2013-08-07 06:11:00,70.3,68.2,29.81,ESE,112,0.0,0.0,93,0.00,,,0.00,WUHU21623XXSP,2013-08-07 11:11:00,
2013-08-07 06:16:00,70.2,68.0,29.81,SE,135,0.0,0.0,93,0.00,,,0.00,WUHU21623XXSP,2013-08-07 11:16:00,
2013-08-07 06:21:00,70.2,68.0,29.81,SE,135,0.0,0.0,93,0.00,,,0.00,WUHU21623XXSP,2013-08-07 11:21:00,
2013-08-07 06:26:00,70.2,68.0,29.81,SE,135,0.0,0.0,93,0.00,,,0.00,WUHU21623XXSP,2013-08-07 11:26:00,
2013-08-07 06:31:00,70.2,68.9,29.81,SE,135,0.0,0.0,96,0.00,,,0.00,WUHU21623XXSP,2013-08-07 11:31:00,
2013-08-07 06:36:00,70.2,68.9,29.81,SSE,157,0.0,0.0,96,0.00,,,0.00,WUHU21623XXSP,2013-08-07 11:36:00,
2013-08-07 06:41:00,70.2,68.9,29.82,SSW,202,0.0,0.0,96,0.00,,,0.00,WUHU21623XXSP,2013-08-07 11:41:00,
2013-08-07 06:46:00,70.3,69.1,29.82,SSW,202,0.0,0.0,96,0.00,,,0.00,WUHU21623XXSP,2013-08-07 11:46:00,
2013-08-07 06:51:00,70.2,68.9,29.82,SSW,202,0.0,0.0,96,0.00,,,0.00,WUHU21623XXSP,2013-08-07 11:51:00,
2013-08-07 06:56:00,70.2,68.9,29.83,SW,225,0.0,0.0,96,0.00,,,0.00,WUHU21623XXSP,2013-08-07 11:56:00,
2013-08-07 07:01:00,70.3,69.1,29.82,SW,225,0.0,0.0,96,0.00,,,0.00,WUHU21623XXSP,2013-08-07 12:01:00,
2013-08-07 07:06:00,70.3,69.1,29.82,SSW,202,0.0,0.0,96,0.00,,,0.00,WUHU21623XXSP,2013-08-07 12:06:00,
2013-08-07 07:11:00,70.3,69.1,29.82,SSW,202,0.0,0.0,96,0.00,,,0.00,WUHU21623XXSP,2013-08-07 12:11:00,
2013-08-07 07:16:00,70.5,69.3,29.83,SSW,202,0.0,0.0,96,0.00,,,0.00,WUHU21623XXSP,2013-08-07 12:16:00,
2013-08-07 07:21:00,70.5,69.3,29.83,SSW,202,0.0,0.0,96,0.00,,,0.00,WUHU21623XXSP,2013-08-07 12:21:00,
2013-08-07 07:26:00,70.7,69.5,29.83,SSW,202,0.0,0.0,96,0.00,,,0.00,WUHU21623XXSP,2013-08-07 12:26:00,
2013-08-07 07:31:00,71.2,70.0,29.83,SSW,202,0.0,0.0,96,0.00,,,0.00,WUHU21623XXSP,2013-08-07 12:31:00,
2013-08-07 07:36:00,71.6,70.4,29.83,South,180,0.0,0.0,96,0.00,,,0.00,WUHU21623XXSP,2013-08-07 12:36:00,
2013-08-07 07:41:00,71.8,70.6,29.83,South,180,0.0,0.0,96,0.00,,,0.00,WUHU21623XXSP,2013-08-07 12:41:00,
2013-08-07 07:46:00,72.0,70.7,29.84,South,180,0.0,0.0,96,0.00,,,0.00,WUHU21623XXSP,2013-08-07 12:46:00,
2013-08-07 07:51:00,72.0,70.7,29.84,South,180,0.0,0.0,96,0.00,,,0.00,WUHU21623XXSP,2013-08-07 12:51:00,
2013-08-07 07:56:00,72.3,71.1,29.84,South,180,0.0,0.0,96,0.00,,,0.00,WUHU21623XXSP,2013-08-07 12:56:00,
2013-08-07 08:01:00,72.3,71.1,29.84,South,180,0.0,0.0,96,0.00,,,0.00,WUHU21623XXSP,2013-08-07 13:01:00,
2013-08-07 08:06:00,72.5,71.3,29.84,SSW,202,0.0,0.0,96,0.00,,,0.00,WUHU21623XXSP,2013-08-07 13:06:00,
2013-08-07 08:11:00,73.0,71.8,29.84,SSE,157,0.0,0.0,96,0.00,,,0.00,WUHU21623XXSP,2013-08-07 13:11:00,
2013-08-07 08:16:00,73.2,72.0,29.84,SSW,202,0.0,0.0,96,0.00,,,0.00,WUHU21623XXSP,2013-08-07 13:16:00,
2013-08-07 08:21:00,73.4,72.2,29.84,WSW,247,0.0,0.0,96,0.00,,,0.00,WUHU21623XXSP,2013-08-07 13:21:00,
2013-08-07 08:26:00,74.1,72.9,29.83,South,180,0.0,2.0,96,0.00,,,0.00,WUHU21623XXSP,2013-08-07 13:26:00,
2013-08-07 08:31:00,74.3,73.1,29.83,SSW,202,0.0,2.0,96,0.00,,,0.00,WUHU21623XXSP,2013-08-07 13:31:00,
2013-08-07 08:36:00,74.8,71.8,29.83,SSW,202,0.0,0.0,90,0.00,,,0.00,WUHU21623XXSP,2013-08-07 13:36:00,
2013-08-07 08:41:00,75.4,72.0,29.83,SSW,202,0.0,0.0,89,0.00,,,0.00,WUHU21623XXSP,2013-08-07 13:41:00,
2013-08-07 08:46:00,75.9,72.2,29.83,SSW,202,0.0,0.0,88,0.00,,,0.00,WUHU21623XXSP,2013-08-07 13:46:00,
2013-08-07 08:51:00,76.1,71.6,29.83,WSW,247,0.0,0.0,86,0.00,,,0.00,WUHU21623XXSP,2013-08-07 13:51:00,
2013-08-07 08:56:00,76.6,71.1,29.84,WNW,292,2.0,2.0,83,0.00,,,0.00,WUHU21623XXSP,2013-08-07 13:56:00,
2013-08-07 09:01:00,77.2,71.2,29.84,NW,315,5.8,5.8,82,0.00,,,0.00,WUHU21623XXSP,2013-08-07 14:01:00,
2013-08-07 09:06:00,77.7,71.4,29.83,West,270,0.0,5.8,81,0.00,,,0.00,WUHU21623XXSP,2013-08-07 14:06:00,
2013-08-07 09:11:00,78.1,70.6,29.83,SW,225,0.0,6.3,78,0.00,,,0.00,WUHU21623XXSP,2013-08-07 14:11:00,
2013-08-07 09:16:00,78.4,70.6,29.83,WNW,292,0.0,6.3,77,0.00,,,0.00,WUHU21623XXSP,2013-08-07 14:16:00,
2013-08-07 09:21:00,78.6,70.0,29.83,SW,225,1.6,3.6,75,0.00,,,0.00,WUHU21623XXSP,2013-08-07 14:21:00,
2013-08-07 09:26:00,79.0,69.9,29.83,West,270,1.1,3.6,74,0.00,,,0.00,WUHU21623XXSP,2013-08-07 14:26:00,
2013-08-07 09:31:00,79.2,69.7,29.83,WSW,247,0.0,1.6,73,0.00,,,0.00,WUHU21623XXSP,2013-08-07 14:31:00,
2013-08-07 09:36:00,79.3,69.5,29.83,WNW,292,0.7,0.7,72,0.00,,,0.00,WUHU21623XXSP,2013-08-07 14:36:00,
2013-08-07 09:41:00,79.5,69.1,29.83,SW,225,0.0,0.7,71,0.00,,,0.00,WUHU21623XXSP,2013-08-07 14:41:00,
2013-08-07 09:46:00,79.7,69.1,29.83,West,270,0.0,2.5,70,0.00,,,0.00,WUHU21623XXSP,2013-08-07 14:46:00,
2013-08-07 09:51:00,79.9,68.8,29.83,NW,315,4.9,4.9,69,0.00,,,0.00,WUHU21623XXSP,2013-08-07 14:51:00,
2013-08-07 09:56:00,80.1,68.5,29.83,NW,315,1.6,4.9,68,0.00,,,0.00,WUHU21623XXSP,2013-08-07 14:56:00,
2013-08-07 10:01:00,80.2,68.3,29.84,WSW,247,0.0,1.6,67,0.00,,,0.00,WUHU21623XXSP,2013-08-07 15:01:00,
2013-08-07 10:06:00,80.1,67.7,29.83,NW,315,3.6,3.6,66,0.00,,,0.00,WUHU21623XXSP,2013-08-07 15:06:00,
2013-08-07 10:11:00,80.2,67.8,29.84,NNW,337,0.9,3.6,66,0.00,,,0.00,WUHU21623XXSP,2013-08-07 15:11:00,
2013-08-07 10:16:00,80.2,67.8,29.84,North,0,0.0,3.8,66,0.00,,,0.00,WUHU21623XXSP,2013-08-07 15:16:00,
2013-08-07 10:21:00,80.2,67.8,29.85,West,270,3.6,3.8,66,0.00,,,0.00,WUHU21623XXSP,2013-08-07 15:21:00,
2013-08-07 10:26:00,80.2,67.4,29.85,WNW,292,1.6,3.6,65,0.00,,,0.00,WUHU21623XXSP,2013-08-07 15:26:00,
2013-08-07 10:31:00,80.4,67.6,29.85,WNW,292,2.0,2.0,65,0.00,,,0.00,WUHU21623XXSP,2013-08-07 15:31:00,
2013-08-07 10:36:00,80.2,66.9,29.85,WNW,292,2.0,6.3,64,0.00,,,0.00,WUHU21623XXSP,2013-08-07 15:36:00,
2013-08-07 10:41:00,80.2,66.9,29.85,WNW,292,0.9,6.3,64,0.00,,,0.00,WUHU21623XXSP,2013-08-07 15:41:00,
2013-08-07 10:46:00,80.2,67.4,29.86,WNW,292,2.0,2.0,65,0.00,,,0.00,WUHU21623XXSP,2013-08-07 15:46:00,
2013-08-07 10:51:00,80.4,67.6,29.85,West,270,0.0,2.0,65,0.00,,,0.00,WUHU21623XXSP,2013-08-07 15:51:00,
2013-08-07 10:56:00,80.4,67.6,29.85,NNW,337,0.9,1.6,65,0.00,,,0.00,WUHU21623XXSP,2013-08-07 15:56:00,
2013-08-07 11:01:00,81.0,68.1,29.85,WNW,292,0.0,1.6,65,0.00,,,0.00,WUHU21623XXSP,2013-08-07 16:01:00,
2013-08-07 11:06:00,81.1,68.2,29.86,WNW,292,3.6,3.6,65,0.00,,,0.00,WUHU21623XXSP,2013-08-07 16:06:00,
2013-08-07 11:11:00,81.1,67.8,29.86,NW,315,1.3,6.7,64,0.00,,,0.00,WUHU21623XXSP,2013-08-07 16:11:00,
2013-08-07 11:16:00,81.5,67.9,29.85,NW,315,5.4,6.7,64,0.00,,,0.00,WUHU21623XXSP,2013-08-07 16:16:00,
2013-08-07 11:17:00,81.3,67.9,29.85,West,270,1.6,6.7,64,0.00,,,0.00,WUHU21623XXSP,2013-08-07 16:17:00,
2013-08-07 11:22:00,81.5,68.1,29.85,NNE,22,0.0,5.4,64,0.00,,,0.00,WUHU21623XXSP,2013-08-07 16:22:00,
2013-08-07 11:27:00,81.3,67.5,29.85,NNW,337,0.0,0.0,63,0.00,,,0.00,WUHU21623XXSP,2013-08-07 16:27:00,
2013-08-07 11:32:00,81.5,67.6,29.86,WNW,292,1.8,1.8,63,0.00,,,0.00,WUHU21623XXSP,2013-08-07 16:32:00,
2013-08-07 11:37:00,81.9,68.0,29.85,West,270,1.6,1.8,63,0.00,,,0.00,WUHU21623XXSP,2013-08-07 16:37:00,
2013-08-07 11:42:00,81.9,68.0,29.86,NNW,337,0.0,1.6,63,0.00,,,0.00,WUHU21623XXSP,2013-08-07 16:42:00,
2013-08-07 11:47:00,82.6,68.6,29.85,NW,315,2.2,2.2,63,0.00,,,0.00,WUHU21623XXSP,2013-08-07 16:47:00,
2013-08-07 11:52:00,82.8,68.4,29.85,WNW,292,4.7,4.7,62,0.00,,,0.00,WUHU21623XXSP,2013-08-07 16:52:00,
2013-08-07 11:57:00,83.1,68.3,29.85,North,0,1.8,4.7,61,0.00,,,0.00,WUHU21623XXSP,2013-08-07 16:57:00,
2013-08-07 12:02:00,83.7,68.4,29.85,WSW,247,0.0,1.8,60,0.00,,,0.00,WUHU21623XXSP,2013-08-07 17:02:00,
2013-08-07 12:07:00,84.0,68.2,29.86,West,270,1.6,1.6,59,0.00,,,0.00,WUHU21623XXSP,2013-08-07 17:07:00,
2013-08-07 12:12:00,84.2,67.3,29.85,NNW,337,0.0,1.6,57,0.00,,,0.00,WUHU21623XXSP,2013-08-07 17:12:00,
2013-08-07 12:17:00,84.6,67.1,29.85,NW,315,0.0,0.0,56,0.00,,,0.00,WUHU21623XXSP,2013-08-07 17:17:00,
2013-08-07 12:22:00,84.9,67.5,29.86,West,270,2.5,2.5,56,0.00,,,0.00,WUHU21623XXSP,2013-08-07 17:22:00,
2013-08-07 12:27:00,85.1,67.6,29.86,NW,315,2.9,2.9,56,0.00,,,0.00,WUHU21623XXSP,2013-08-07 17:27:00,
2013-08-07 12:32:00,85.5,65.9,29.86,NNW,337,2.2,4.7,52,0.00,,,0.00,WUHU21623XXSP,2013-08-07 17:32:00,
2013-08-07 12:37:00,85.8,66.2,29.86,WNW,292,0.0,6.5,52,0.00,,,0.00,WUHU21623XXSP,2013-08-07 17:37:00,
2013-08-07 12:42:00,86.2,66.5,29.86,NW,315,4.7,6.5,52,0.00,,,0.00,WUHU21623XXSP,2013-08-07 17:42:00,
2013-08-07 12:47:00,86.0,65.8,29.86,NNW,337,0.0,5.6,51,0.00,,,0.00,WUHU21623XXSP,2013-08-07 17:47:00,
2013-08-07 12:52:00,85.6,65.5,29.85,WNW,292,4.3,5.6,51,0.00,,,0.00,WUHU21623XXSP,2013-08-07 17:52:00,
2013-08-07 12:57:00,86.2,66.0,29.85,West,270,2.9,4.3,51,0.00,,,0.00,WUHU21623XXSP,2013-08-07 17:57:00,
2013-08-07 13:02:00,86.4,65.0,29.86,NW,315,4.3,6.9,49,0.00,,,0.00,WUHU21623XXSP,2013-08-07 18:02:00,
2013-08-07 13:07:00,86.5,64.5,29.86,West,270,0.9,6.9,48,0.00,,,0.00,WUHU21623XXSP,2013-08-07 18:07:00,
2013-08-07 13:12:00,86.9,64.8,29.86,WNW,292,2.9,6.7,48,0.00,,,0.00,WUHU21623XXSP,2013-08-07 18:12:00,
2013-08-07 13:17:00,87.4,64.1,29.86,WNW,292,2.7,3.1,46,0.00,,,0.00,WUHU21623XXSP,2013-08-07 18:17:00,
2013-08-07 13:22:00,87.8,64.4,29.86,NW,315,0.0,3.1,46,0.00,,,0.00,WUHU21623XXSP,2013-08-07 18:22:00,
2013-08-07 13:27:00,87.8,65.0,29.86,NW,315,0.0,1.1,47,0.00,,,0.00,WUHU21623XXSP,2013-08-07 18:27:00,
2013-08-07 13:32:00,88.2,65.3,29.86,North,0,0.9,3.8,47,0.00,,,0.00,WUHU21623XXSP,2013-08-07 18:32:00,
2013-08-07 13:37:00,88.0,64.5,29.86,NNW,337,0.0,5.1,46,0.00,,,0.00,WUHU21623XXSP,2013-08-07 18:37:00,
2013-08-07 13:42:00,87.4,64.1,29.86,NW,315,0.0,5.1,46,0.00,,,0.00,WUHU21623XXSP,2013-08-07 18:42:00,
2013-08-07 13:47:00,87.1,63.1,29.86,NW,315,3.8,5.8,45,0.00,,,0.00,WUHU21623XXSP,2013-08-07 18:47:00,
2013-08-07 13:51:00,87.3,63.3,29.86,NNW,337,0.0,5.8,45,0.00,,,0.00,WUHU21623XXSP,2013-08-07 18:51:00,
2013-08-07 13:56:00,87.6,62.3,29.86,NW,315,3.1,4.0,43,0.00,,,0.00,WUHU21623XXSP,2013-08-07 18:56:00,
2013-08-07 14:01:00,88.0,62.7,29.86,WNW,292,6.9,6.9,43,0.00,,,0.00,WUHU21623XXSP,2013-08-07 19:01:00,
2013-08-07 14:07:00,88.0,61.4,29.86,WNW,292,8.1,8.1,41,0.00,,,0.00,WUHU21623XXSP,2013-08-07 19:07:00,
2013-08-07 14:12:00,88.3,61.7,29.86,WNW,292,2.2,8.1,41,0.00,,,0.00,WUHU21623XXSP,2013-08-07 19:12:00,
2013-08-07 14:17:00,88.2,60.9,29.86,West,270,4.0,5.4,40,0.00,,,0.00,WUHU21623XXSP,2013-08-07 19:17:00,
2013-08-07 14:22:00,88.2,60.9,29.86,North,0,6.3,6.3,40,0.00,,,0.00,WUHU21623XXSP,2013-08-07 19:22:00,
2013-08-07 14:27:00,87.6,60.9,29.86,NNW,337,0.0,6.3,40,0.00,,,0.00,WUHU21623XXSP,2013-08-07 19:27:00,
2013-08-07 14:32:00,87.6,61.1,29.86,NNW,337,0.0,3.1,41,0.00,,,0.00,WUHU21623XXSP,2013-08-07 19:32:00,
2013-08-07 14:37:00,87.6,60.5,29.86,North,0,0.9,2.0,40,0.00,,,0.00,WUHU21623XXSP,2013-08-07 19:37:00,
2013-08-07 14:42:00,88.2,60.9,29.86,North,0,3.6,4.7,40,0.00,,,0.00,WUHU21623XXSP,2013-08-07 19:42:00,
2013-08-07 14:47:00,88.0,60.8,29.86,WNW,292,5.8,8.1,40,0.00,,,0.00,WUHU21623XXSP,2013-08-07 19:47:00,
2013-08-07 14:52:00,88.2,61.5,29.86,West,270,2.7,8.1,41,0.00,,,0.00,WUHU21623XXSP,2013-08-07 19:52:00,
2013-08-07 14:57:00,88.2,60.1,29.86,West,270,0.7,5.8,39,0.00,,,0.00,WUHU21623XXSP,2013-08-07 19:57:00,
2013-08-07 15:02:00,88.0,60.0,29.86,WNW,292,0.0,4.7,39,0.00,,,0.00,WUHU21623XXSP,2013-08-07 20:02:00,
2013-08-07 15:07:00,88.2,60.1,29.86,NW,315,1.8,4.7,39,0.00,,,0.00,WUHU21623XXSP,2013-08-07 20:07:00,
2013-08-07 15:12:00,88.3,60.2,29.86,West,270,0.0,4.0,39,0.00,,,0.00,WUHU21623XXSP,2013-08-07 20:12:00,
2013-08-07 15:17:00,88.5,60.4,29.86,North,0,0.0,4.0,39,0.00,,,0.00,WUHU21623XXSP,2013-08-07 20:17:00,
2013-08-07 15:22:00,88.3,60.2,29.86,WNW,292,5.4,7.8,39,0.00,,,0.00,WUHU21623XXSP,2013-08-07 20:22:00,
2013-08-07 15:27:00,88.5,61.2,29.86,WNW,292,2.2,7.8,40,0.00,,,0.00,WUHU21623XXSP,2013-08-07 20:27:00,
2013-08-07 15:32:00,88.2,60.1,29.86,North,0,2.2,2.2,39,0.00,,,0.00,WUHU21623XXSP,2013-08-07 20:32:00,
2013-08-07 15:37:00,87.4,59.5,29.86,WNW,292,0.0,6.7,39,0.00,,,0.00,WUHU21623XXSP,2013-08-07 20:37:00,
2013-08-07 15:42:00,86.9,59.0,29.86,West,270,0.0,6.7,39,0.00,,,0.00,WUHU21623XXSP,2013-08-07 20:42:00,
2013-08-07 15:47:00,86.7,59.6,29.86,NNW,337,4.7,5.6,40,0.00,,,0.00,WUHU21623XXSP,2013-08-07 20:47:00,
2013-08-07 15:52:00,86.2,59.2,29.86,NW,315,2.0,7.4,40,0.00,,,0.00,WUHU21623XXSP,2013-08-07 20:52:00,
2013-08-07 15:57:00,86.0,59.0,29.86,West,270,0.0,7.4,40,0.00,,,0.00,WUHU21623XXSP,2013-08-07 20:57:00,
2013-08-07 16:02:00,85.5,59.1,29.86,NW,315,1.8,1.8,41,0.00,,,0.00,WUHU21623XXSP,2013-08-07 21:02:00,
2013-08-07 16:07:00,85.1,59.5,29.87,WNW,292,1.8,1.8,42,0.00,,,0.00,WUHU21623XXSP,2013-08-07 21:07:00,
2013-08-07 16:12:00,84.9,59.0,29.87,North,0,2.9,8.5,41,0.00,,,0.00,WUHU21623XXSP,2013-08-07 21:12:00,
2013-08-07 16:17:00,85.1,59.5,29.86,NNE,22,6.0,8.5,42,0.00,,,0.00,WUHU21623XXSP,2013-08-07 21:17:00,
2013-08-07 16:22:00,85.1,60.1,29.86,NNE,22,0.0,6.0,43,0.00,,,0.00,WUHU21623XXSP,2013-08-07 21:22:00,
2013-08-07 16:27:00,85.3,60.2,29.86,WNW,292,1.1,3.4,43,0.00,,,0.00,WUHU21623XXSP,2013-08-07 21:27:00,
2013-08-07 16:32:00,85.3,59.6,29.86,WNW,292,1.6,4.9,42,0.00,,,0.00,WUHU21623XXSP,2013-08-07 21:32:00,
2013-08-07 16:37:00,84.9,59.9,29.86,North,0,0.0,5.4,43,0.00,,,0.00,WUHU21623XXSP,2013-08-07 21:37:00,
2013-08-07 16:42:00,84.9,60.5,29.87,North,0,4.7,5.4,44,0.00,,,0.00,WUHU21623XXSP,2013-08-07 21:42:00,
2013-08-07 16:47:00,84.6,60.2,29.87,NW,315,1.8,4.7,44,0.00,,,0.00,WUHU21623XXSP,2013-08-07 21:47:00,
2013-08-07 16:52:00,83.8,59.6,29.87,North,0,6.0,6.0,44,0.00,,,0.00,WUHU21623XXSP,2013-08-07 21:52:00,
2013-08-07 16:57:00,83.8,59.6,29.87,NNW,337,5.6,6.0,44,0.00,,,0.00,WUHU21623XXSP,2013-08-07 21:57:00,
2013-08-07 17:02:00,83.5,59.2,29.88,North,0,0.0,5.6,44,0.00,,,0.00,WUHU21623XXSP,2013-08-07 22:02:00,
2013-08-07 17:07:00,83.3,59.1,29.87,NW,315,0.0,4.5,44,0.00,,,0.00,WUHU21623XXSP,2013-08-07 22:07:00,
2013-08-07 17:12:00,83.3,59.7,29.87,NE,45,0.0,3.4,45,0.00,,,0.00,WUHU21623XXSP,2013-08-07 22:12:00,
2013-08-07 17:17:00,83.3,59.7,29.87,North,0,1.3,5.4,45,0.00,,,0.00,WUHU21623XXSP,2013-08-07 22:17:00,
2013-08-07 17:22:00,83.3,60.3,29.87,NNW,337,0.7,6.3,46,0.00,,,0.00,WUHU21623XXSP,2013-08-07 22:22:00,
2013-08-07 17:27:00,82.9,60.6,29.87,WSW,247,0.0,6.3,47,0.00,,,0.00,WUHU21623XXSP,2013-08-07 22:27:00,
2013-08-07 17:32:00,82.8,59.8,29.87,NNE,22,5.1,6.7,46,0.00,,,0.00,WUHU21623XXSP,2013-08-07 22:32:00,
2013-08-07 17:37:00,82.8,59.8,29.87,NNW,337,0.0,6.7,46,0.00,,,0.00,WUHU21623XXSP,2013-08-07 22:37:00,
2013-08-07 17:42:00,82.8,60.4,29.87,NNW,337,4.0,4.0,47,0.00,,,0.00,WUHU21623XXSP,2013-08-07 22:42:00,
2013-08-07 17:47:00,82.6,59.6,29.88,North,0,5.8,5.8,46,0.00,,,0.00,WUHU21623XXSP,2013-08-07 22:47:00,
2013-08-07 17:52:00,82.6,59.6,29.87,NE,45,0.7,5.8,46,0.00,,,0.00,WUHU21623XXSP,2013-08-07 22:52:00,
2013-08-07 17:57:00,82.2,59.9,29.88,NW,315,6.0,6.0,47,0.00,,,0.00,WUHU21623XXSP,2013-08-07 22:57:00,
2013-08-07 18:02:00,81.9,60.2,29.88,NW,315,0.9,6.0,48,0.00,,,0.00,WUHU21623XXSP,2013-08-07 23:02:00,
2013-08-07 18:07:00,82.0,60.9,29.88,NNW,337,3.4,4.9,49,0.00,,,0.00,WUHU21623XXSP,2013-08-07 23:07:00,
2013-08-07 18:12:00,82.0,61.6,29.88,NNE,22,4.7,4.7,50,0.00,,,0.00,WUHU21623XXSP,2013-08-07 23:12:00,
2013-08-07 18:17:00,81.5,61.1,29.88,NNE,22,6.0,9.2,50,0.00,,,0.00,WUHU21623XXSP,2013-08-07 23:17:00,
2013-08-07 18:22:00,81.7,61.8,29.88,NNE,22,5.1,9.2,51,0.00,,,0.00,WUHU21623XXSP,2013-08-07 23:22:00,
2013-08-07 18:27:00,81.3,61.4,29.89,NNE,22,2.7,6.7,51,0.00,,,0.00,WUHU21623XXSP,2013-08-07 23:27:00,
2013-08-07 18:32:00,81.0,61.1,29.89,NNW,337,3.6,6.3,51,0.00,,,0.00,WUHU21623XXSP,2013-08-07 23:32:00,
2013-08-07 18:37:00,80.4,61.1,29.89,North,0,1.3,6.3,52,0.00,,,0.00,WUHU21623XXSP,2013-08-07 23:37:00,
2013-08-07 18:42:00,80.4,61.1,29.89,NNE,22,3.1,3.6,52,0.00,,,0.00,WUHU21623XXSP,2013-08-07 23:42:00,
2013-08-07 18:47:00,80.2,61.0,29.90,North,0,5.8,5.8,52,0.00,,,0.00,WUHU21623XXSP,2013-08-07 23:47:00,
2013-08-07 18:52:00,80.1,60.8,29.90,NNE,22,0.7,5.8,52,0.00,,,0.00,WUHU21623XXSP,2013-08-07 23:52:00,
2013-08-07 18:57:00,79.7,60.5,29.90,NNE,22,5.1,5.4,52,0.00,,,0.00,WUHU21623XXSP,2013-08-07 23:57:00,
2013-08-07 19:02:00,79.5,60.9,29.91,WNW,292,1.8,5.4,53,0.00,,,0.00,WUHU21623XXSP,2013-08-08 00:02:00,
2013-08-07 19:07:00,79.0,60.4,29.90,North,0,0.0,1.8,53,0.00,,,0.00,WUHU21623XXSP,2013-08-08 00:07:00,
2013-08-07 19:12:00,78.6,60.0,29.91,NNE,22,3.1,3.1,53,0.00,,,0.00,WUHU21623XXSP,2013-08-08 00:12:00,
2013-08-07 19:17:00,78.3,60.2,29.91,North,0,0.0,3.1,54,0.00,,,0.00,WUHU21623XXSP,2013-08-08 00:17:00,
2013-08-07 19:22:00,77.9,59.9,29.91,NW,315,3.8,3.8,54,0.00,,,0.00,WUHU21623XXSP,2013-08-08 00:22:00,
2013-08-07 19:27:00,77.7,60.2,29.91,North,0,1.6,3.8,55,0.00,,,0.00,WUHU21623XXSP,2013-08-08 00:27:00,
2013-08-07 19:32:00,77.4,60.4,29.93,North,0,0.0,3.1,56,0.00,,,0.00,WUHU21623XXSP,2013-08-08 00:32:00,
2013-08-07 19:37:00,77.4,60.4,29.92,NE,45,0.9,3.1,56,0.00,,,0.00,WUHU21623XXSP,2013-08-08 00:37:00,
2013-08-07 19:42:00,77.2,60.2,29.92,WNW,292,1.1,1.8,56,0.00,,,0.00,WUHU21623XXSP,2013-08-08 00:42:00,
2013-08-07 19:47:00,76.6,59.7,29.93,NE,45,0.0,1.1,56,0.00,,,0.00,WUHU21623XXSP,2013-08-08 00:47:00,
2013-08-07 19:52:00,76.5,59.6,29.92,NNW,337,2.5,2.5,56,0.00,,,0.00,WUHU21623XXSP,2013-08-08 00:52:00,
2013-08-07 19:57:00,76.1,59.2,29.93,East,90,0.0,2.5,56,0.00,,,0.00,WUHU21623XXSP,2013-08-08 00:57:00,
2013-08-07 20:02:00,75.4,59.1,29.93,NNW,337,0.0,2.9,57,0.00,,,0.00,WUHU21623XXSP,2013-08-08 01:02:00,
2013-08-07 20:07:00,75.0,58.7,29.94,NNE,22,1.1,2.9,57,0.00,,,0.00,WUHU21623XXSP,2013-08-08 01:07:00,
2013-08-07 20:12:00,74.8,59.1,29.94,North,0,0.0,4.5,58,0.00,,,0.00,WUHU21623XXSP,2013-08-08 01:12:00,
2013-08-07 20:17:00,74.3,58.9,29.94,North,0,0.9,4.5,58,0.00,,,0.00,WUHU21623XXSP,2013-08-08 01:17:00,
2013-08-07 20:22:00,74.1,59.4,29.94,West,270,0.0,0.9,60,0.00,,,0.00,WUHU21623XXSP,2013-08-08 01:22:00,
2013-08-07 20:27:00,73.9,59.2,29.94,North,0,1.8,1.8,60,0.00,,,0.00,WUHU21623XXSP,2013-08-08 01:27:00,
2013-08-07 20:32:00,73.6,58.8,29.94,NNW,337,0.0,1.8,60,0.00,,,0.00,WUHU21623XXSP,2013-08-08 01:32:00,
2013-08-07 20:37:00,73.4,58.6,29.94,NNE,22,0.0,2.5,60,0.00,,,0.00,WUHU21623XXSP,2013-08-08 01:37:00,
2013-08-07 20:42:00,73.0,58.7,29.94,NE,45,0.0,2.5,61,0.00,,,0.00,WUHU21623XXSP,2013-08-08 01:42:00,
2013-08-07 20:47:00,72.9,58.6,29.95,NNW,337,0.0,0.0,61,0.00,,,0.00,WUHU21623XXSP,2013-08-08 01:47:00,
2013-08-07 20:52:00,72.5,58.3,29.95,NNW,337,0.0,0.0,61,0.00,,,0.00,WUHU21623XXSP,2013-08-08 01:52:00,
2013-08-07 20:57:00,72.3,58.5,29.95,North,0,0.0,0.0,62,0.00,,,0.00,WUHU21623XXSP,2013-08-08 01:57:00,
2013-08-07 21:02:00,72.1,58.4,29.95,North,0,0.0,0.0,62,0.00,,,0.00,WUHU21623XXSP,2013-08-08 02:02:00,
2013-08-07 21:07:00,72.0,58.2,29.95,North,0,0.0,0.0,62,0.00,,,0.00,WUHU21623XXSP,2013-08-08 02:07:00,
2013-08-07 21:12:00,71.8,58.5,29.95,NE,45,0.9,1.1,63,0.00,,,0.00,WUHU21623XXSP,2013-08-08 02:12:00,
2013-08-07 21:17:00,71.6,58.3,29.96,North,0,0.0,1.1,63,0.00,,,0.00,WUHU21623XXSP,2013-08-08 02:17:00,
2013-08-07 21:22:00,71.4,58.1,29.96,North,0,0.0,0.0,63,0.00,,,0.00,WUHU21623XXSP,2013-08-08 02:22:00,
2013-08-07 21:27:00,71.2,58.4,29.96,NNW,337,0.0,0.0,64,0.00,,,0.00,WUHU21623XXSP,2013-08-08 02:27:00,
2013-08-07 21:32:00,71.2,58.4,29.96,North,0,0.0,0.0,64,0.00,,,0.00,WUHU21623XXSP,2013-08-08 02:32:00,
2013-08-07 21:37:00,71.1,58.2,29.96,NNE,22,0.0,0.0,64,0.00,,,0.00,WUHU21623XXSP,2013-08-08 02:37:00,
2013-08-07 21:42:00,71.1,58.7,29.96,NNW,337,0.0,0.0,65,0.00,,,0.00,WUHU21623XXSP,2013-08-08 02:42:00,
2013-08-07 21:47:00,70.7,58.3,29.96,NW,315,0.0,0.0,65,0.00,,,0.00,WUHU21623XXSP,2013-08-08 02:47:00,
2013-08-07 21:52:00,70.5,58.2,29.96,NNE,22,0.0,0.0,65,0.00,,,0.00,WUHU21623XXSP,2013-08-08 02:52:00,
2013-08-07 21:57:00,70.5,58.6,29.96,North,0,1.6,1.8,66,0.00,,,0.00,WUHU21623XXSP,2013-08-08 02:57:00,
2013-08-07 22:02:00,70.5,59.0,29.96,NNW,337,0.0,1.8,67,0.00,,,0.00,WUHU21623XXSP,2013-08-08 03:02:00,
2013-08-07 22:07:00,70.2,58.6,29.96,North,0,0.0,0.0,67,0.00,,,0.00,WUHU21623XXSP,2013-08-08 03:07:00,
2013-08-07 22:12:00,70.2,58.6,29.96,North,0,0.0,0.0,67,0.00,,,0.00,WUHU21623XXSP,2013-08-08 03:12:00,
2013-08-07 22:17:00,70.0,58.5,29.96,NNW,337,0.0,0.0,67,0.00,,,0.00,WUHU21623XXSP,2013-08-08 03:17:00,
2013-08-07 22:22:00,70.0,58.9,29.96,NNE,22,0.0,0.0,68,0.00,,,0.00,WUHU21623XXSP,2013-08-08 03:22:00,
2013-08-07 22:27:00,69.8,58.7,29.97,North,0,0.0,0.9,68,0.00,,,0.00,WUHU21623XXSP,2013-08-08 03:27:00,
2013-08-07 22:32:00,69.6,58.5,29.96,North,0,0.0,4.7,68,0.00,,,0.00,WUHU21623XXSP,2013-08-08 03:32:00,
2013-08-07 22:37:00,69.4,58.4,29.96,North,0,0.0,4.7,68,0.00,,,0.00,WUHU21623XXSP,2013-08-08 03:37:00,
2013-08-07 22:42:00,69.4,58.8,29.97,North,0,0.7,0.7,69,0.00,,,0.00,WUHU21623XXSP,2013-08-08 03:42:00,
2013-08-07 22:47:00,69.4,58.8,29.97,North,0,0.0,0.7,69,0.00,,,0.00,WUHU21623XXSP,2013-08-08 03:47:00,
2013-08-07 22:52:00,69.3,58.6,29.96,North,0,0.0,0.0,69,0.00,,,0.00,WUHU21623XXSP,2013-08-08 03:52:00,
2013-08-07 22:57:00,69.1,58.5,29.97,North,0,0.0,0.0,69,0.00,,,0.00,WUHU21623XXSP,2013-08-08 03:57:00,
2013-08-07 23:01:00,69.1,58.5,29.96,North,0,1.3,1.3,69,0.00,,,0.00,WUHU21623XXSP,2013-08-08 04:01:00,
2013-08-07 23:06:00,68.9,58.7,29.97,NNE,22,0.0,1.3,70,0.00,,,0.00,WUHU21623XXSP,2013-08-08 04:06:00,
2013-08-07 23:11:00,68.9,58.7,29.97,NNE,22,0.0,0.0,70,0.00,,,0.00,WUHU21623XXSP,2013-08-08 04:11:00,
2013-08-07 23:16:00,68.9,58.7,29.97,NNE,22,0.0,0.0,70,0.00,,,0.00,WUHU21623XXSP,2013-08-08 04:16:00,
2013-08-07 23:21:00,68.7,58.9,29.97,NNE,22,0.7,2.5,71,0.00,,,0.00,WUHU21623XXSP,2013-08-08 04:21:00,
2013-08-07 23:26:00,68.7,58.9,29.97,NNE,22,0.0,2.5,71,0.00,,,0.00,WUHU21623XXSP,2013-08-08 04:26:00,
2013-08-07 23:31:00,68.5,58.8,29.97,NNE,22,1.6,2.0,71,0.00,,,0.00,WUHU21623XXSP,2013-08-08 04:31:00,
2013-08-07 23:36:00,68.5,59.2,29.97,NE,45,1.6,2.0,72,0.00,,,0.00,WUHU21623XXSP,2013-08-08 04:36:00,
2013-08-07 23:41:00,68.4,59.0,29.97,North,0,1.6,1.6,72,0.00,,,0.00,WUHU21623XXSP,2013-08-08 04:41:00,
2013-08-07 23:46:00,68.2,58.8,29.97,NE,45,0.0,1.6,72,0.00,,,0.00,WUHU21623XXSP,2013-08-08 04:46:00,
2013-08-07 23:51:00,68.2,58.8,29.96,NNE,22,2.7,2.7,72,0.00,,,0.00,WUHU21623XXSP,2013-08-08 04:51:00,
2013-08-07 23:56:00,68.2,58.8,29.96,NE,45,1.6,2.7,72,0.00,,,0.00,WUHU21623XXSP,2013-08-08 04:56:00,